Flood From: 18-02-2018 10:00 Until: 19-02-2018 06:00 warning for: Flood Level: Yellow info button

Although rather usual in this region, locally or potentially dangerous phenomena are expected. (such as local winds, summer thunderstorms, rising streams or high waves) Be aware and pay attention to the latest weather updates, especially if you carry out activities exposed to weather or close to a stream or shoreline. 


Meteo18 Weather Cam more information Meteo18 Weather Cam


Thunder radar more information blitzortung!


Rain radar more information rain snow radar


Visit our other weather sites:

Template documentation
and downloads

And another site



Weather Underground History page Text

Daily Summary for September 8, 2017 Units:  English    Metric   Both
« Previous Day
Next Day »
Daily Weekly Monthly Yearly Custom
  High: Low: Average:
Temperature: TemperatureC °F 13.9 °F 16.6 °F
Dew Point: DewpointC °F 9.7 °F 12.1 °F
Humidity: Humidity % 67 % 75 %
Wind Speed: WindSpeedKMH mph 0.0 mph 12 mph
Wind Gust: WindSpeedGustKMH mph - -
Wind:- - SW
Pressure: PressurehPa in 1004.6 in -
Precipitation: 0.0 in    
Historical Graphs
 
 
Tabular Data for September 8, 2017
Time Temperature Dew Point Pressure Wind Wind Speed Wind Gust Humidity Rainfall Rate (Hourly)
TemperatureC °F DewpointC °F PressurehPa in Calm     Humidity % HourlyPrecipMM in
00:02 15.6 °F 10.4 °F 1017.8 in SW 3.2 mph 4.8 mph 71 % 0.0 in
00:07 15.6 °F 10.1 °F 1017.8 in WSW 4.8 mph 6.4 mph 70 % 0.0 in
00:12 15.7 °F 10.2 °F 1017.8 in WSW 1.6 mph 6.4 mph 70 % 0.0 in
00:17 15.7 °F 10.0 °F 1017.8 in WSW 1.6 mph 6.4 mph 69 % 0.0 in
00:22 15.7 °F 10.0 °F 1017.8 in SW 1.6 mph 6.4 mph 69 % 0.0 in
00:32 15.8 °F 9.9 °F 1017.8 in Calm   4.8 mph 68 % 0.0 in
00:37 15.8 °F 9.9 °F 1017.8 in West 1.6 mph 4.8 mph 68 % 0.0 in
00:42 15.8 °F 9.7 °F 1017.8 in SW 6.4 mph 6.4 mph 67 % 0.0 in
00:47 15.9 °F 9.8 °F 1017.5 in SW 1.6 mph 6.4 mph 67 % 0.0 in
00:52 15.9 °F 10.0 °F 1017.5 in SSW 1.6 mph 8.0 mph 68 % 0.0 in
00:57 15.7 °F 10.0 °F 1017.5 in SSW 1.6 mph 8.0 mph 69 % 0.0 in
01:02 15.5 °F 10.1 °F 1017.5 in SSW 3.2 mph 8.0 mph 70 % 0.0 in
01:07 15.3 °F 10.1 °F 1017.5 in SSW 3.2 mph 6.4 mph 71 % 0.0 in
01:12 15.3 °F 10.1 °F 1017.5 in SW 3.2 mph 6.4 mph 71 % 0.0 in
01:17 15.2 °F 10.2 °F 1017.5 in SW 4.8 mph 8.0 mph 72 % 0.0 in
01:22 15.1 °F 10.1 °F 1017.5 in SSW 6.4 mph 8.0 mph 72 % 0.0 in
01:27 15.1 °F 10.1 °F 1017.2 in SSW 4.8 mph 8.0 mph 72 % 0.0 in
01:32 15.1 °F 10.1 °F 1017.2 in SW 6.4 mph 6.4 mph 72 % 0.0 in
01:42 15.0 °F 10.2 °F 1017.2 in SW 6.4 mph 9.7 mph 73 % 0.0 in
01:52 14.9 °F 10.1 °F 1016.8 in SSE 4.8 mph 9.7 mph 73 % 0.0 in
01:57 14.9 °F 10.1 °F 1016.8 in SSW 1.6 mph 8.0 mph 73 % 0.0 in
02:07 14.9 °F 10.1 °F 1016.8 in SW 4.8 mph 8.0 mph 73 % 0.0 in
02:12 14.9 °F 10.1 °F 1016.8 in SSW 4.8 mph 8.0 mph 73 % 0.0 in
02:17 14.9 °F 10.1 °F 1016.8 in SW 4.8 mph 6.4 mph 73 % 0.0 in
02:22 15.1 °F 10.3 °F 1016.8 in SW 3.2 mph 9.7 mph 73 % 0.0 in
02:27 15.2 °F 10.4 °F 1016.8 in SW 4.8 mph 12.9 mph 73 % 0.0 in
02:32 15.2 °F 10.2 °F 1016.5 in SW 1.6 mph 12.9 mph 72 % 0.0 in
02:37 15.3 °F 10.5 °F 1016.5 in SW 4.8 mph 11.3 mph 73 % 0.0 in
02:42 15.3 °F 10.5 °F 1016.5 in West 1.6 mph 9.7 mph 73 % 0.0 in
02:47 15.3 °F 10.5 °F 1016.5 in WSW 6.4 mph 9.7 mph 73 % 0.0 in
02:52 15.3 °F 10.5 °F 1016.5 in WSW 8.0 mph 11.3 mph 73 % 0.0 in
02:57 15.3 °F 10.5 °F 1016.1 in SW 6.4 mph 11.3 mph 73 % 0.0 in
03:02 15.2 °F 10.6 °F 1016.1 in WSW 6.4 mph 11.3 mph 74 % 0.0 in
03:12 15.2 °F 10.6 °F 1016.5 in WSW 4.8 mph 8.0 mph 74 % 0.0 in
03:17 15.2 °F 10.6 °F 1016.5 in WSW 1.6 mph 8.0 mph 74 % 0.0 in
03:22 15.2 °F 10.8 °F 1016.5 in WSW 3.2 mph 8.0 mph 75 % 0.0 in
03:27 15.2 °F 10.8 °F 1016.5 in SW 4.8 mph 8.0 mph 75 % 0.0 in
03:32 15.2 °F 10.8 °F 1016.5 in WSW 6.4 mph 8.0 mph 75 % 0.0 in
03:37 15.2 °F 10.8 °F 1016.5 in SW 6.4 mph 9.7 mph 75 % 0.0 in
03:42 15.2 °F 10.8 °F 1016.5 in SW 4.8 mph 9.7 mph 75 % 0.0 in
03:47 15.2 °F 10.8 °F 1016.5 in West 1.6 mph 12.9 mph 75 % 0.0 in
03:52 15.2 °F 10.8 °F 1016.5 in West 3.2 mph 12.9 mph 75 % 0.0 in
03:57 15.2 °F 10.8 °F 1016.5 in WSW 6.4 mph 12.9 mph 75 % 0.0 in
04:02 15.2 °F 10.8 °F 1016.5 in WSW 3.2 mph 9.7 mph 75 % 0.0 in
04:07 15.2 °F 10.8 °F 1016.5 in WSW 3.2 mph 9.7 mph 75 % 0.0 in
04:12 15.2 °F 11.0 °F 1016.5 in SW 6.4 mph 9.7 mph 76 % 0.0 in
04:17 15.2 °F 11.0 °F 1016.5 in SW 4.8 mph 11.3 mph 76 % 0.0 in
04:22 15.2 °F 11.0 °F 1016.1 in WSW 9.7 mph 11.3 mph 76 % 0.0 in
04:27 15.1 °F 10.9 °F 1016.1 in SW 6.4 mph 11.3 mph 76 % 0.0 in
04:37 15.1 °F 11.1 °F 1016.1 in SW 8.0 mph 11.3 mph 77 % 0.0 in
04:42 15.1 °F 11.1 °F 1016.1 in West 4.8 mph 14.5 mph 77 % 0.0 in
04:47 15.1 °F 11.1 °F 1016.1 in WSW 6.4 mph 14.5 mph 77 % 0.0 in
04:52 15.0 °F 11.0 °F 1016.1 in SSW 1.6 mph 14.5 mph 77 % 0.0 in
05:02 15.0 °F 11.0 °F 1015.8 in WSW 11.3 mph 16.1 mph 77 % 0.0 in
05:22 14.9 °F 10.7 °F 1015.8 in SW 8.0 mph 17.7 mph 76 % 0.0 in
05:27 14.9 °F 10.7 °F 1015.8 in WSW 9.7 mph 19.3 mph 76 % 0.0 in
05:32 14.9 °F 10.7 °F 1015.8 in WSW 14.5 mph 19.3 mph 76 % 0.0 in
05:37 14.8 °F 10.8 °F 1015.8 in WSW 3.2 mph 19.3 mph 77 % 0.0 in
05:47 14.8 °F 10.8 °F 1015.5 in WSW 4.8 mph 14.5 mph 77 % 0.0 in
05:52 14.7 °F 10.7 °F 1015.5 in SW 8.0 mph 14.5 mph 77 % 0.0 in
05:57 14.7 °F 10.7 °F 1015.5 in WSW 11.3 mph 17.7 mph 77 % 0.0 in
06:02 14.6 °F 10.6 °F 1015.5 in SW 11.3 mph 17.7 mph 77 % 0.0 in
06:07 14.6 °F 10.6 °F 1015.5 in SW 12.9 mph 17.7 mph 77 % 0.0 in
06:12 14.5 °F 10.5 °F 1015.5 in WSW 6.4 mph 17.7 mph 77 % 0.0 in
06:22 14.4 °F 10.6 °F 1015.5 in SSW 3.2 mph 20.9 mph 78 % 0.0 in
06:32 14.3 °F 10.5 °F 1015.5 in SW 8.0 mph 19.3 mph 78 % 0.0 in
06:42 14.3 °F 10.5 °F 1015.5 in SW 9.7 mph 19.3 mph 78 % 0.0 in
06:47 14.3 °F 10.7 °F 1015.5 in SW 8.0 mph 17.7 mph 79 % 0.0 in
06:52 14.2 °F 10.6 °F 1015.5 in SW 11.3 mph 17.7 mph 79 % 0.0 in
07:02 14.2 °F 10.6 °F 1015.5 in WSW 6.4 mph 17.7 mph 79 % 0.0 in
07:12 14.1 °F 10.7 °F 1015.5 in SW 8.0 mph 19.3 mph 80 % 0.0 in
07:17 14.1 °F 10.7 °F 1015.5 in SW 1.6 mph 19.3 mph 80 % 0.0 in
07:22 14.0 °F 10.8 °F 1015.5 in SW 6.4 mph 19.3 mph 81 % 0.0 in
07:32 13.9 °F 10.7 °F 1015.1 in SW 11.3 mph 14.5 mph 81 % 0.0 in
07:42 13.9 °F 10.7 °F 1015.1 in SW 12.9 mph 19.3 mph 81 % 0.0 in
07:47 13.9 °F 10.7 °F 1015.1 in SSW 12.9 mph 19.3 mph 81 % 0.0 in
07:52 13.9 °F 10.7 °F 1015.1 in SW 11.3 mph 17.7 mph 81 % 0.0 in
07:57 13.9 °F 10.7 °F 1015.1 in SW 11.3 mph 17.7 mph 81 % 0.0 in
08:02 13.9 °F 10.7 °F 1015.1 in SW 19.3 mph 19.3 mph 81 % 0.0 in
08:07 13.9 °F 10.9 °F 1015.1 in SW 12.9 mph 20.9 mph 82 % 0.0 in
08:12 13.9 °F 10.9 °F 1015.1 in SW 8.0 mph 20.9 mph 82 % 0.0 in
08:17 13.9 °F 10.9 °F 1015.1 in SW 8.0 mph 20.9 mph 82 % 0.0 in
08:22 13.9 °F 10.9 °F 1014.8 in SW 12.9 mph 16.1 mph 82 % 0.0 in
08:32 14.0 °F 11.0 °F 1014.8 in SW 16.1 mph 19.3 mph 82 % 0.0 in
08:37 14.0 °F 11.0 °F 1014.8 in SSW 11.3 mph 20.9 mph 82 % 0.0 in
08:42 14.1 °F 11.1 °F 1014.8 in SW 16.1 mph 20.9 mph 82 % 0.0 in
08:47 14.1 °F 11.1 °F 1014.8 in South 8.0 mph 20.9 mph 82 % 0.0 in
08:52 14.1 °F 11.1 °F 1014.8 in SSW 12.9 mph 20.9 mph 82 % 0.0 in
08:57 14.2 °F 11.2 °F 1014.8 in WSW 14.5 mph 20.9 mph 82 % 0.0 in
09:02 14.2 °F 11.2 °F 1014.4 in SSW 16.1 mph 22.5 mph 82 % 0.0 in
09:07 14.4 °F 11.4 °F 1014.4 in SW 9.7 mph 22.5 mph 82 % 0.0 in
09:12 14.6 °F 11.6 °F 1014.4 in WSW 22.5 mph 22.5 mph 82 % 0.0 in
09:17 14.6 °F 11.6 °F 1014.4 in SW 17.7 mph 24.1 mph 82 % 0.0 in
09:22 14.7 °F 11.7 °F 1014.4 in WSW 14.5 mph 24.1 mph 82 % 0.0 in
09:32 14.8 °F 11.6 °F 1014.4 in WSW 19.3 mph 29.0 mph 81 % 0.0 in
09:37 14.9 °F 11.7 °F 1014.4 in SW 19.3 mph 29.0 mph 81 % 0.0 in
09:42 14.9 °F 11.7 °F 1014.4 in SW 16.1 mph 25.7 mph 81 % 0.0 in
09:47 14.9 °F 11.7 °F 1014.4 in SSW 17.7 mph 25.7 mph 81 % 0.0 in
09:52 14.9 °F 11.7 °F 1014.4 in SW 17.7 mph 27.4 mph 81 % 0.0 in
09:57 15.1 °F 11.7 °F 1014.4 in SW 14.5 mph 27.4 mph 80 % 0.0 in
10:02 15.2 °F 11.8 °F 1014.4 in South 9.7 mph 25.7 mph 80 % 0.0 in
10:12 15.3 °F 11.7 °F 1014.4 in SSW 9.7 mph 24.1 mph 79 % 0.0 in
10:17 15.5 °F 11.9 °F 1014.4 in SSW 8.0 mph 24.1 mph 79 % 0.0 in
10:22 15.6 °F 11.8 °F 1014.4 in WSW 11.3 mph 24.1 mph 78 % 0.0 in
10:27 15.7 °F 11.9 °F 1014.8 in SSW 11.3 mph 24.1 mph 78 % 0.0 in
10:32 15.7 °F 11.9 °F 1014.4 in SW 16.1 mph 24.1 mph 78 % 0.0 in
10:37 15.7 °F 11.9 °F 1014.4 in WSW 11.3 mph 32.2 mph 78 % 0.0 in
10:47 15.8 °F 11.8 °F 1014.4 in WSW 16.1 mph 32.2 mph 77 % 0.0 in
10:52 16.0 °F 12.0 °F 1014.4 in SW 22.5 mph 27.4 mph 77 % 0.0 in
11:02 16.3 °F 12.1 °F 1014.4 in SW 8.0 mph 27.4 mph 76 % 0.0 in
11:07 16.4 °F 12.2 °F 1014.4 in WSW 19.3 mph 29.0 mph 76 % 0.0 in
11:12 16.6 °F 12.4 °F 1014.4 in SW 16.1 mph 29.0 mph 76 % 0.0 in
11:17 16.7 °F 12.2 °F 1014.4 in SW 12.9 mph 24.1 mph 75 % 0.0 in
11:22 16.8 °F 12.1 °F 1014.4 in SW 22.5 mph 25.7 mph 74 % 0.0 in
11:32 16.8 °F 12.3 °F 1014.1 in WSW 12.9 mph 29.0 mph 75 % 0.0 in
11:37 16.9 °F 12.4 °F 1014.1 in WSW 16.1 mph 29.0 mph 75 % 0.0 in
11:42 16.9 °F 12.2 °F 1014.1 in West 12.9 mph 29.0 mph 74 % 0.0 in
11:52 16.7 °F 12.4 °F 1013.8 in West 12.9 mph 25.7 mph 76 % 0.0 in
11:57 16.7 °F 12.4 °F 1014.1 in SW 16.1 mph 25.7 mph 76 % 0.0 in
12:02 16.6 °F 12.6 °F 1013.8 in SSW 9.7 mph 25.7 mph 77 % 0.0 in
12:07 16.7 °F 12.6 °F 1013.8 in SW 29.0 mph 29.0 mph 77 % 0.0 in
12:12 16.9 °F 12.6 °F 1013.8 in SSW 16.1 mph 32.2 mph 76 % 0.0 in
12:17 16.7 °F 12.6 °F 1013.8 in SW 22.5 mph 32.2 mph 77 % 0.0 in
12:22 16.6 °F 12.9 °F 1013.8 in WSW 11.3 mph 32.2 mph 79 % 0.0 in
12:32 16.8 °F 13.1 °F 1013.4 in South 8.0 mph 30.6 mph 79 % 0.0 in
12:42 17.4 °F 13.1 °F 1013.1 in SW 11.3 mph 25.7 mph 76 % 0.0 in
12:47 17.7 °F 13.2 °F 1013.1 in SW 14.5 mph 30.6 mph 75 % 0.0 in
12:52 17.7 °F 13.0 °F 1013.1 in SW 9.7 mph 30.6 mph 74 % 0.0 in
12:57 17.6 °F 13.3 °F 1013.1 in South 24.1 mph 30.6 mph 76 % 0.0 in
13:02 17.4 °F 13.1 °F 1013.1 in South 14.5 mph 27.4 mph 76 % 0.0 in
13:07 17.3 °F 13.2 °F 1012.8 in SSW 14.5 mph 32.2 mph 77 % 0.0 in
13:12 17.4 °F 13.1 °F 1012.8 in SW 9.7 mph 32.2 mph 76 % 0.0 in
13:17 17.6 °F 13.1 °F 1012.8 in SW 6.4 mph 32.2 mph 75 % 0.0 in
13:22 17.7 °F 13.0 °F 1012.8 in SW 8.0 mph 25.7 mph 74 % 0.0 in
13:27 18.0 °F 13.1 °F 1012.4 in SW 6.4 mph 22.5 mph 73 % 0.0 in
13:32 18.1 °F 13.0 °F 1012.4 in SW 4.8 mph 22.5 mph 72 % 0.0 in
13:37 18.1 °F 13.0 °F 1012.8 in WSW 12.9 mph 24.1 mph 72 % 0.0 in
13:42 17.9 °F 13.0 °F 1012.4 in WSW 16.1 mph 24.1 mph 73 % 0.0 in
13:47 17.7 °F 13.0 °F 1012.8 in SW 29.0 mph 29.0 mph 74 % 0.0 in
13:52 17.2 °F 13.3 °F 1012.8 in West 14.5 mph 30.6 mph 78 % 0.0 in
13:57 16.8 °F 13.7 °F 1012.8 in WSW 19.3 mph 30.6 mph 82 % 0.0 in
14:02 16.6 °F 14.1 °F 1012.8 in WSW 16.1 mph 29.0 mph 85 % 0.0 in
14:07 16.7 °F 14.0 °F 1012.8 in West 6.4 mph 27.4 mph 84 % 0.0 in
14:12 16.8 °F 13.7 °F 1012.8 in West 9.7 mph 24.1 mph 82 % 0.0 in
14:17 17.1 °F 14.0 °F 1012.4 in West 6.4 mph 24.1 mph 82 % 0.0 in
14:22 17.3 °F 13.8 °F 1012.4 in WSW 16.1 mph 22.5 mph 80 % 0.0 in
14:27 17.4 °F 13.9 °F 1012.1 in SSW 3.2 mph 24.1 mph 80 % 0.0 in
14:32 17.5 °F 13.8 °F 1012.1 in SW 4.8 mph 24.1 mph 79 % 0.0 in
14:37 17.7 °F 13.8 °F 1011.7 in SW 12.9 mph 19.3 mph 78 % 0.0 in
14:42 17.9 °F 13.6 °F 1011.7 in West 22.5 mph 22.5 mph 76 % 0.0 in
14:47 17.9 °F 13.6 °F 1011.7 in SW 6.4 mph 27.4 mph 76 % 0.0 in
14:52 18.2 °F 13.5 °F 1011.7 in SW 11.3 mph 27.4 mph 74 % 0.0 in
14:57 18.6 °F 13.7 °F 1011.7 in ENE 9.7 mph 27.4 mph 73 % 0.0 in
15:02 18.8 °F 13.6 °F 1011.4 in SSW 11.3 mph 20.9 mph 72 % 0.0 in
15:07 18.7 °F 13.3 °F 1011.4 in WSW 19.3 mph 22.5 mph 71 % 0.0 in
15:12 18.8 °F 13.4 °F 1011.4 in WSW 11.3 mph 24.1 mph 71 % 0.0 in
15:17 18.8 °F 13.4 °F 1011.1 in South 16.1 mph 24.1 mph 71 % 0.0 in
15:22 18.7 °F 13.5 °F 1011.1 in SW 12.9 mph 29.0 mph 72 % 0.0 in
15:27 18.4 °F 13.5 °F 1011.1 in WNW 16.1 mph 29.0 mph 73 % 0.0 in
15:32 18.4 °F 13.5 °F 1011.1 in SSW 16.1 mph 32.2 mph 73 % 0.0 in
15:37 18.6 °F 13.7 °F 1011.1 in SW 16.1 mph 32.2 mph 73 % 0.0 in
15:47 18.6 °F 13.5 °F 1011.1 in SW 9.7 mph 33.8 mph 72 % 0.0 in
15:52 18.8 °F 13.4 °F 1010.7 in SW 8.0 mph 33.8 mph 71 % 0.0 in
15:57 18.8 °F 13.2 °F 1010.7 in SW 11.3 mph 33.8 mph 70 % 0.0 in
16:02 18.8 °F 13.6 °F 1010.7 in WSW 24.1 mph 29.0 mph 72 % 0.0 in
16:07 18.7 °F 13.5 °F 1010.7 in SW 4.8 mph 29.0 mph 72 % 0.0 in
16:12 18.7 °F 13.5 °F 1010.4 in SW 6.4 mph 29.0 mph 72 % 0.0 in
16:17 18.8 °F 13.6 °F 1010.4 in SW 14.5 mph 29.0 mph 72 % 0.0 in
16:22 18.9 °F 13.5 °F 1010.0 in SSW 14.5 mph 27.4 mph 71 % 0.0 in
16:27 19.1 °F 13.5 °F 1010.0 in SW 17.7 mph 29.0 mph 70 % 0.0 in
16:32 19.1 °F 13.3 °F 1010.0 in SW 14.5 mph 29.0 mph 69 % 0.0 in
16:37 19.1 °F 13.5 °F 1010.0 in WSW 14.5 mph 29.0 mph 70 % 0.0 in
16:42 19.1 °F 13.5 °F 1009.7 in SW 12.9 mph 27.4 mph 70 % 0.0 in
16:47 19.2 °F 13.6 °F 1009.7 in SSW 9.7 mph 27.4 mph 70 % 0.0 in
16:52 19.3 °F 13.2 °F 1009.7 in SW 22.5 mph 27.4 mph 68 % 0.0 in
16:57 19.4 °F 13.3 °F 1009.7 in SW 12.9 mph 27.4 mph 68 % 0.0 in
17:02 19.3 °F 13.2 °F 1009.7 in WSW 9.7 mph 32.2 mph 68 % 0.0 in
17:07 19.2 °F 13.4 °F 1010.0 in SW 20.9 mph 33.8 mph 69 % 0.0 in
17:12 19.1 °F 13.3 °F 1009.7 in South 8.0 mph 33.8 mph 69 % 0.0 in
17:17 19.1 °F 13.3 °F 1009.7 in WSW 6.4 mph 33.8 mph 69 % 0.0 in
17:22 19.2 °F 13.4 °F 1009.7 in SW 14.5 mph 30.6 mph 69 % 0.0 in
17:27 19.3 °F 13.2 °F 1009.4 in WSW 9.7 mph 29.0 mph 68 % 0.0 in
17:32 19.5 °F 13.4 °F 1009.4 in WSW 9.7 mph 29.0 mph 68 % 0.0 in
17:37 19.5 °F 13.2 °F 1009.4 in WSW 17.7 mph 30.6 mph 67 % 0.0 in
17:42 19.6 °F 13.3 °F 1009.4 in West 8.0 mph 30.6 mph 67 % 0.0 in
17:47 19.4 °F 13.3 °F 1009.4 in SW 19.3 mph 30.6 mph 68 % 0.0 in
17:52 19.4 °F 13.3 °F 1009.4 in SW 25.7 mph 30.6 mph 68 % 0.0 in
17:57 19.3 °F 13.5 °F 1009.4 in SSW 22.5 mph 29.0 mph 69 % 0.0 in
18:02 19.2 °F 13.4 °F 1009.4 in SW 19.3 mph 29.0 mph 69 % 0.0 in
18:07 19.2 °F 13.4 °F 1009.0 in SW 20.9 mph 29.0 mph 69 % 0.0 in
18:12 19.2 °F 13.4 °F 1009.0 in SSW 16.1 mph 29.0 mph 69 % 0.0 in
18:17 19.3 °F 13.2 °F 1008.7 in South 11.3 mph 29.0 mph 68 % 0.0 in
18:22 19.4 °F 13.3 °F 1008.7 in West 12.9 mph 29.0 mph 68 % 0.0 in
18:32 19.4 °F 13.1 °F 1008.7 in SSW 14.5 mph 29.0 mph 67 % 0.0 in
18:42 19.4 °F 13.1 °F 1008.7 in SW 19.3 mph 29.0 mph 67 % 0.0 in
18:47 19.4 °F 13.1 °F 1008.7 in West 8.0 mph 29.0 mph 67 % 0.0 in
18:52 19.4 °F 13.1 °F 1008.4 in SW 20.9 mph 29.0 mph 67 % 0.0 in
19:02 19.1 °F 13.3 °F 1008.4 in SW 12.9 mph 33.8 mph 69 % 0.0 in
19:07 19.0 °F 13.2 °F 1008.4 in SW 14.5 mph 33.8 mph 69 % 0.0 in
19:12 18.9 °F 13.1 °F 1008.4 in SSW 11.3 mph 33.8 mph 69 % 0.0 in
19:17 18.9 °F 13.1 °F 1008.4 in SW 27.4 mph 32.2 mph 69 % 0.0 in
19:22 19.0 °F 13.2 °F 1008.4 in SW 16.1 mph 30.6 mph 69 % 0.0 in
19:27 18.8 °F 13.2 °F 1008.4 in WSW 12.9 mph 29.0 mph 70 % 0.0 in
19:32 18.5 °F 13.4 °F 1008.4 in West 14.5 mph 38.6 mph 72 % 0.0 in
19:37 18.3 °F 13.4 °F 1008.4 in WSW 16.1 mph 38.6 mph 73 % 0.0 in
19:42 18.2 °F 13.3 °F 1008.0 in WSW 6.4 mph 38.6 mph 73 % 0.0 in
19:47 18.3 °F 13.0 °F 1008.0 in WSW 19.3 mph 32.2 mph 71 % 0.0 in
19:52 18.5 °F 12.9 °F 1008.0 in WSW 22.5 mph 27.4 mph 70 % 0.0 in
19:57 18.6 °F 13.0 °F 1008.0 in West 24.1 mph 37.0 mph 70 % 0.0 in
20:02 18.5 °F 12.9 °F 1008.0 in SW 11.3 mph 37.0 mph 70 % 0.0 in
20:07 18.4 °F 12.8 °F 1007.7 in SW 19.3 mph 37.0 mph 70 % 0.0 in
20:12 18.4 °F 12.8 °F 1007.7 in SW 20.9 mph 32.2 mph 70 % 0.0 in
20:17 18.4 °F 12.8 °F 1007.7 in SW 22.5 mph 30.6 mph 70 % 0.0 in
20:22 18.4 °F 12.8 °F 1007.7 in WSW 17.7 mph 24.1 mph 70 % 0.0 in
20:27 18.4 °F 12.6 °F 1007.3 in SW 14.5 mph 24.1 mph 69 % 0.0 in
20:32 18.4 °F 12.6 °F 1007.3 in SW 24.1 mph 30.6 mph 69 % 0.0 in
20:37 18.5 °F 12.7 °F 1007.3 in SW 16.1 mph 35.4 mph 69 % 0.0 in
20:42 18.4 °F 12.8 °F 1007.3 in SW 20.9 mph 35.4 mph 70 % 0.0 in
20:47 18.3 °F 13.0 °F 1007.3 in SW 16.1 mph 37.0 mph 71 % 0.0 in
20:52 18.1 °F 13.0 °F 1007.3 in SSW 22.5 mph 37.0 mph 72 % 0.0 in
20:57 18.0 °F 12.9 °F 1007.3 in SW 16.1 mph 33.8 mph 72 % 0.0 in
21:02 18.0 °F 12.9 °F 1007.3 in WSW 16.1 mph 33.8 mph 72 % 0.0 in
21:07 18.1 °F 13.0 °F 1007.3 in WSW 20.9 mph 33.8 mph 72 % 0.0 in
21:12 18.0 °F 12.9 °F 1007.0 in SSW 12.9 mph 33.8 mph 72 % 0.0 in
21:17 18.0 °F 12.9 °F 1007.0 in SW 20.9 mph 33.8 mph 72 % 0.0 in
21:22 18.0 °F 12.9 °F 1007.0 in SW 12.9 mph 27.4 mph 72 % 0.0 in
21:27 18.0 °F 12.7 °F 1007.0 in SW 14.5 mph 24.1 mph 71 % 0.0 in
21:32 18.1 °F 12.8 °F 1007.0 in WSW 19.3 mph 25.7 mph 71 % 0.0 in
21:37 18.1 °F 12.8 °F 1006.7 in SW 14.5 mph 25.7 mph 71 % 0.0 in
21:42 18.0 °F 12.9 °F 1006.7 in SW 33.8 mph 33.8 mph 72 % 0.0 in
21:47 17.9 °F 13.0 °F 1006.7 in SW 16.1 mph 40.2 mph 73 % 0.0 in
21:52 17.7 °F 13.0 °F 1006.7 in SW 27.4 mph 40.2 mph 74 % 0.0 in
21:57 17.4 °F 12.9 °F 1006.7 in SW 29.0 mph 40.2 mph 75 % 0.0 in
22:02 17.3 °F 13.0 °F 1006.7 in SW 17.7 mph 35.4 mph 76 % 0.0 in
22:07 17.2 °F 13.1 °F 1006.7 in SW 11.3 mph 35.4 mph 77 % 0.0 in
22:12 17.2 °F 13.1 °F 1006.7 in SSW 6.4 mph 29.0 mph 77 % 0.0 in
22:17 17.2 °F 13.1 °F 1006.7 in SW 16.1 mph 27.4 mph 77 % 0.0 in
22:27 17.1 °F 13.2 °F 1006.3 in SSW 11.3 mph 24.1 mph 78 % 0.0 in
22:32 16.9 °F 13.2 °F 1006.3 in SW 16.1 mph 25.7 mph 79 % 0.0 in
22:37 16.7 °F 13.2 °F 1006.3 in WSW 6.4 mph 29.0 mph 80 % 0.0 in
22:42 16.3 °F 13.4 °F 1006.3 in SW 22.5 mph 29.0 mph 83 % 0.0 in
22:52 15.8 °F 13.5 °F 1006.0 in SSW 8.0 mph 29.0 mph 86 % 0.0 in
22:57 15.6 °F 13.6 °F 1005.6 in SW 16.1 mph 27.4 mph 88 % 0.0 in
23:02 15.6 °F 13.6 °F 1005.6 in SSW 12.9 mph 27.4 mph 88 % 0.0 in
23:07 15.5 °F 13.5 °F 1005.3 in SW 12.9 mph 27.4 mph 88 % 0.0 in
23:12 15.6 °F 13.4 °F 1005.3 in SW 8.0 mph 25.7 mph 87 % 0.0 in
23:17 15.7 °F 13.5 °F 1005.3 in SW 14.5 mph 24.1 mph 87 % 0.0 in
23:22 15.7 °F 13.5 °F 1005.0 in SW 9.7 mph 20.9 mph 87 % 0.0 in
23:27 15.7 °F 13.4 °F 1005.0 in SW 19.3 mph 20.9 mph 86 % 0.0 in
23:32 15.8 °F 13.5 °F 1005.0 in SW 11.3 mph 20.9 mph 86 % 0.0 in
23:37 15.9 °F 13.4 °F 1005.0 in SW 12.9 mph 19.3 mph 85 % 0.0 in
23:42 16.0 °F 13.3 °F 1005.0 in SSW 11.3 mph 20.9 mph 84 % 0.0 in
23:47 16.2 °F 13.3 °F 1005.0 in SW 19.3 mph 24.1 mph 83 % 0.0 in
23:52 16.2 °F 13.3 °F 1005.0 in SW 16.1 mph 27.4 mph 83 % 0.0 in
23:57 16.1 °F 13.2 °F 1004.6 in SW 11.3 mph 27.4 mph 83 % 0.0 in
Meteo18
Compliments of Weather Underground - 4 mb

Script developed by  Jim McMurry - jmcmurry@mwt.net Adapted for the template by  Wim van der Kuil - Leuven-Template.eu

You find our weather info also at:

European Weather Network

Weather Underground

Equipment we use:

Weather-station
Davis Vue

Weather-program
Meteobridge

Weather-server
Raspberry PI 2 B+

Provider
1 and 1

Davis Vue

Meteobridge

Raspberry PI 2 B+

1 and 1